SCP
0 0 0 0 0 0 0 0 0 0 0 0 0 0 0 0 0 0 0 0 0 0 0 0 0 1 1 1 0 0 0 0 0 0 0 0 0 0 0 0 0 0 0 0
0 0 0 0 0 0 0 0 0 0 0 0 0 0 0 0 0 0 0 0 0 0 0 0 0 1 1 1 0 0 0 0 0 0 0 0 0 0 0 0 0 0 0 0
0 0 0 0 0 0 0 0 0 0 0 0 0 0 0 0 0 0 0 0 0 0 0 0 1 1 1 1 0 0 0 0 0 0 0 0 0 0 0 0 0 0 0 0
0 0 0 0 0 0 0 0 0 0 0 0 0 0 0 0 0 0 0 0 0 0 0 0 1 1 1 1 0 0 0 0 0 0 0 0 0 0 0 0 0 0 0 0
0 0 0 0 0 0 0 0 0 0 0 0 0 0 0 0 0 0 0 0 0 0 0 0 1 1 1 1 0 0 0 0 0 0 0 0 0 0 0 0 0 0 0 0
0 0 0 0 0 0 0 0 0 0 0 0 0 0 0 0 0 0 0 0 0 0 0 0 0 1 1 1 1 0 0 0 0 0 0 0 0 0 0 0 0 0 0 0
0 0 0 0 0 0 0 0 0 0 0 0 0 0 0 0 0 0 0 0 0 0 0 0 0 0 1 1 1 1 1 1 1 1 0 0 0 0 0 0 0 0 0 0
0 0 0 0 0 0 0 0 0 0 0 0 0 0 0 0 0 0 0 0 0 0 0 0 0 0 0 0 1 1 1 1 1 1 0 1 1 0 0 0 0 0 0 0
0 0 0 0 0 0 0 0 0 0 0 0 0 0 0 0 0 0 0 0 0 0 0 0 0 0 0 0 0 0 1 1 1 1 1 1 1 1 1 1 0 0 0 0
0 0 0 0 0 0 0 0 0 0 0 0 0 0 0 0 0 0 0 0 0 0 0 0 0 0 1 1 0 0 1 1 1 1 2 2 2 1 1 1 1 0 0 0
0 0 0 0 0 0 0 0 0 0 0 0 0 0 0 0 0 0 0 0 0 0 0 0 0 0 1 1 1 1 1 1 1 1 2 2 2 1 1 1 1 1 0 0
0 0 0 0 0 0 0 0 0 0 0 0 0 0 0 0 0 0 0 0 0 0 0 0 0 0 0 1 1 1 1 1 1 1 1 2 2 1 1 1 1 0 0 0
0 0 0 0 0 0 0 0 0 0 0 0 0 0 0 0 0 0 0 0 0 0 0 0 0 0 0 0 0 1 1 1 1 1 1 2 2 2 1 1 0 0 0 0
0 0 0 0 0 0 0 0 0 0 0 0 0 0 0 0 0 0 0 0 0 1 1 1 0 0 0 0 0 0 0 1 1 1 1 2 2 1 1 0 0 0 0 0
0 0 0 0 0 0 0 0 0 0 0 0 0 0 0 0 0 0 0 0 0 1 1 1 1 0 0 0 0 0 0 0 0 1 1 1 1 1 1 0 0 0 0 0
0 0 0 0 0 0 0 0 0 0 0 0 0 0 0 0 0 0 0 0 0 0 1 1 1 1 0 0 0 0 0 0 0 0 0 0 0 1 1 0 0 0 0 0
0 0 0 0 0 0 0 0 0 0 0 0 0 0 0 0 0 0 0 0 0 0 1 1 1 1 0 0 0 0 0 0 0 0 0 0 0 0 0 0 0 0 0 0
0 0 0 0 0 0 0 0 0 0 0 0 0 0 0 0 0 0 0 0 0 0 0 1 1 1 0 0 0 0 0 0 0 0 0 0 0 0 0 0 0 0 0 0
0 0 0 0 0 0 0 0 0 0 0 0 0 0 0 0 0 0 0 0 0 0 0 1 1 0 0 0 0 0 0 0 0 0 0 0 0 0 0 0 0 0 0 0
0 0 0 0 0 0 0 0 0 0 0 0 0 0 0 0 0 0 0 0 0 0 0 0 0 0 0 0 0 0 0 0 0 0 0 0 0 0 0 0 0 0 0 0
0 0 0 0 0 0 0 0 0 0 0 0 0 0 0 0 0 0 0 0 0 0 0 0 0 0 0 0 0 0 0 0 0 0 0 0 0 0 0 0 0 0 0 0
0 0 0 0 0 0 0 0 0 0 0 0 0 0 0 0 0 0 0 0 0 0 0 0 0 0 0 0 0 0 0 0 0 0 0 0 0 0 0 0 0 0 0 0
0 0 0 0 0 0 0 0 0 0 0 0 0 0 0 0 0 0 0 0 0 0 0 0 0 0 0 0 0 0 0 0 0 0 0 0 0 0 0 0 0 0 0 0
0 0 0 0 0 0 0 0 0 0 0 0 0 0 0 0 0 0 0 0 0 0 0 0 0 0 0 0 0 0 0 0 0 0 0 0 0 0 0 0 0 0 0 0
0 0 0 0 0 0 0 0 0 0 0 0 0 0 0 0 0 0 0 0 0 0 0 0 0 0 0 0 0 0 0 0 0 0 0 0 0 0 0 0 0 0 0 0
0 0 0 0 0 0 0 0 0 0 0 0 0 0 0 0 0 0 0 0 0 0 0 0 0 0 0 0 0 0 0 0 0 0 0 0 0 0 0 0 0 0 0 0
Wind_Speed
3 5 2 4 5 4 3 3 1 3 1 4 3 3 4 1 2 3 3 3 3 4 3 1 1 1 2 3 3 2 2 1 2 1 1 1 0 1 1 1 2 2 2 2
5 1 4 3 3 3 3 2 1 2 1 3 2 2 3 2 3 5 5 5 5 3 1 1 1 2 2 1 1 2 1 1 1 1 1 1 1 0 0 1 2 2 1 1
3 4 1 3 2 2 2 4 4 3 1 2 1 4 3 2 1 2 2 3 4 4 4 2 1 0 1 0 1 1 1 1 1 1 2 2 2 2 2 2 1 2 1 1
2 3 1 2 2 3 3 4 4 3 2 1 1 3 5 3 3 2 4 4 5 4 4 3 2 2 2 2 1 1 1 0 1 2 2 3 2 1 1 1 1 1 1 1
2 1 2 2 3 4 3 0 2 2 3 1 2 1 7 2 3 5 4 5 5 5 5 4 4 4 3 2 1 1 1 1 1 1 2 2 1 1 0 0 1 1 1 1
2 1 2 3 1 2 3 5 5 5 4 0 2 3 6 4 5 4 3 4 4 4 4 3 2 2 1 1 1 1 1 1 1 1 1 2 2 1 1 0 0 1 1 1
4 4 2 1 2 3 4 5 4 4 3 4 2 2 8 5 4 5 5 4 2 3 3 3 2 2 1 1 1 1 2 1 1 1 1 1 2 2 2 1 1 1 0 1
1 5 3 0 4 4 3 7 6 4 4 4 2 4 7 4 3 2 2 2 1 2 3 3 3 3 3 2 2 1 2 1 1 1 0 0 1 1 1 1 1 2 1 2
4 5 3 1 1 6 4 2 5 6 2 2 4 5 7 1 1 1 0 1 2 2 3 3 2 2 2 2 3 3 3 1 1 1 1 0 0 1 1 1 1 1 1 1
6 3 3 2 4 3 4 7 5 4 3 3 4 4 5 4 3 2 2 2 3 2 2 2 2 2 2 2 2 2 3 2 2 1 1 1 1 1 1 1 1 2 2 1
4 4 3 2 2 3 3 3 4 4 4 4 3 7 6 6 5 4 5 4 4 4 4 3 2 2 1 1 1 1 2 2 1 2 1 1 1 1 1 1 2 2 2 2
3 5 1 3 2 1 3 5 6 4 3 4 3 8 5 4 4 4 4 3 3 4 3 2 2 1 1 1 1 1 2 2 2 2 2 1 1 1 1 2 2 2 2 2
5 5 2 5 5 2 1 2 3 5 4 4 4 8 3 1 2 2 3 3 2 2 2 1 1 2 2 2 2 1 2 2 2 1 2 1 1 1 2 2 2 2 2 2
5 4 6 7 6 3 2 2 4 5 4 4 7 8 7 4 4 4 3 3 2 2 2 2 2 2 2 2 2 2 2 2 1 1 2 2 2 2 2 2 2 2 2 2
4 3 3 4 3 3 4 5 5 6 8 8 8 8 9 7 6 5 3 2 2 2 3 3 3 3 2 2 2 2 2 2 2 1 2 3 3 2 1 1 1 1 2 2
3 3 1 2 2 2 4 6 7 7 6 6 5 8 7 4 2 2 3 3 4 4 4 3 3 3 3 4 3 2 3 2 2 2 2 2 1 1 1 1 1 1 1 1
2 3 2 3 3 1 5 6 6 5 5 6 7 8 3 2 3 4 4 4 5 5 4 4 5 5 5 4 4 4 3 2 2 2 2 1 2 2 2 1 0 1 1 0
5 3 3 1 1 5 7 2 4 4 4 4 5 4 3 4 4 3 3 4 4 4 3 3 3 3 3 3 2 2 2 2 2 2 2 2 2 2 2 1 1 1 1 1
4 6 3 3 3 6 6 2 3 4 4 4 4 3 1 1 2 3 2 2 3 3 3 3 3 2 1 1 2 2 1 1 1 2 2 2 2 2 2 2 2 1 1 1
4 4 4 3 3 6 6 2 1 2 4 3 3 3 1 2 1 5 3 2 1 1 0 1 1 1 1 1 1 2 1 1 2 3 3 2 2 3 3 3 2 1 1 1
2 2 3 4 4 7 5 3 1 3 6 3 3 3 4 4 5 4 1 1 1 1 1 1 2 1 1 1 2 2 1 2 3 2 1 1 1 2 2 2 1 1 1 1
4 4 5 4 4 8 3 2 4 6 3 2 2 3 4 4 2 1 1 1 1 1 1 2 2 0 1 0 2 1 2 2 1 0 0 1 1 1 1 1 1 1 1 1
4 6 5 7 7 4 2 4 4 2 2 3 2 3 3 2 2 1 1 1 0 0 1 1 1 0 1 0 1 1 2 1 0 1 0 1 1 1 1 1 1 1 1 1
3 1 2 3 5 4 4 3 3 2 3 3 2 2 2 3 2 2 1 1 0 0 1 1 1 0 1 1 0 1 1 0 1 1 1 1 0 1 0 0 1 1 1 1
4 3 2 4 5 4 3 3 3 2 1 1 1 1 2 3 2 2 1 1 1 1 1 1 1 1 1 0 1 1 0 1 1 0 1 1 1 0 0 1 1 2 2 3
4 6 6 6 6 4 5 3 2 1 2 1 1 1 1 2 3 2 2 1 1 1 1 1 1 1 1 0 0 1 0 1 2 0 1 1 1 1 0 0 1 2 2 3
Wind_Direction
43 75 149 205 191 174 156 155 213 257 199 131 177 242 279 201 178 202 214 219 225 241 270 313 338 40 50 42 45 53 79 76 92 83 94 89 45 13 10 12 23 43 71 88
46 319 238 183 158 134 135 144 250 298 105 151 184 273 282 217 207 212 209 212 222 240 299 315 8 48 67 59 48 52 66 104 125 123 125 120 117 86 27 6 17 25 51 75
169 246 188 135 129 134 190 184 204 216 49 71 93 325 308 294 237 223 217 210 213 213 221 237 217 200 87 101 170 176 200 202 151 112 87 70 49 35 24 9 355 351 23 65
231 267 141 132 181 159 239 229 191 172 128 289 114 275 285 278 300 257 238 225 225 220 213 208 201 198 209 222 210 199 162 151 112 124 129 141 142 161 223 246 280 332 9 33
255 242 142 177 218 174 218 130 122 135 141 60 16 194 285 309 278 270 253 236 230 217 207 204 203 204 211 208 186 191 118 103 82 114 156 160 161 173 189 14 28 7 0 351
257 269 196 201 176 143 127 71 58 51 75 337 247 186 279 253 234 259 261 241 229 211 204 210 206 186 194 184 166 145 120 108 96 101 141 163 170 163 112 29 10 347 348 344
337 328 320 136 87 37 80 85 34 1 10 257 259 196 252 257 240 231 243 249 227 188 183 188 184 186 194 189 180 154 136 129 120 127 156 185 177 172 185 204 211 220 302 302
188 297 292 217 165 165 150 135 154 200 229 277 305 236 255 267 271 250 225 216 180 172 180 190 200 192 194 196 183 164 159 173 163 147 218 219 182 180 202 207 205 216 224 237
178 252 292 292 147 135 130 148 161 137 165 267 281 286 302 308 337 344 119 135 183 192 195 201 204 195 195 195 195 185 178 188 194 177 171 152 227 198 210 226 227 228 240 235
163 219 294 314 74 43 132 142 104 118 155 256 289 278 255 264 267 280 268 231 227 208 205 212 212 212 205 194 191 177 175 188 201 185 187 188 236 237 215 201 224 240 243 236
145 163 307 26 162 182 108 105 113 126 153 162 258 272 231 226 228 232 244 234 218 215 214 216 223 220 200 152 143 161 181 178 189 203 204 192 224 244 211 205 231 240 243 225
142 129 224 267 273 206 164 164 147 154 213 174 185 266 268 238 240 226 240 242 220 214 212 214 213 192 164 170 180 182 193 205 219 208 195 214 229 231 222 229 241 238 242 237
137 118 83 343 341 3 87 140 141 128 127 160 182 260 286 307 285 248 236 238 220 207 201 202 201 196 199 200 206 217 208 217 222 199 190 199 231 235 232 240 242 240 236 236
119 125 167 198 218 203 227 192 158 140 163 203 219 245 282 287 278 273 257 239 208 202 202 206 220 222 218 212 208 215 233 223 204 193 191 206 227 234 239 243 239 236 227 218
103 158 212 229 226 193 215 220 195 193 196 199 227 232 255 253 244 246 244 234 196 205 216 216 219 224 221 223 233 228 231 231 206 193 210 228 234 233 229 243 254 242 217 216
84 155 178 275 249 221 238 239 224 222 214 218 238 258 256 260 250 243 231 216 214 219 223 227 225 222 224 223 226 232 234 232 200 197 226 241 230 227 228 234 238 230 228 216
121 138 142 254 294 350 264 233 212 217 214 196 222 244 274 293 260 240 231 217 218 223 218 216 223 222 225 224 218 216 224 220 206 216 232 235 220 218 224 215 167 219 221 175
144 132 145 194 56 239 245 237 192 205 237 216 226 250 242 240 249 246 222 214 228 228 221 220 222 228 232 223 216 213 210 200 207 227 235 232 215 214 210 187 196 220 209 199
156 143 136 145 215 272 292 267 184 190 254 230 220 249 267 323 16 329 287 244 235 232 217 210 215 216 213 212 199 168 179 191 202 239 248 238 212 201 194 200 219 222 214 238
88 112 127 148 189 239 250 277 263 135 270 264 197 212 198 103 54 274 291 298 295 297 189 163 146 119 132 220 161 149 176 189 221 238 252 245 211 202 205 210 216 222 210 227
97 106 155 179 218 257 261 281 119 164 248 262 210 210 183 193 214 241 280 314 328 356 39 95 105 116 221 204 136 146 187 231 242 244 257 258 223 213 207 200 204 199 202 209
182 173 185 164 202 254 276 122 175 224 257 259 230 219 199 222 247 273 249 275 353 17 45 89 99 37 340 100 126 157 246 266 280 210 210 278 270 247 206 175 189 181 177 197
200 194 189 190 213 241 239 217 248 235 242 253 234 234 199 208 239 248 226 250 283 20 74 73 95 37 353 10 148 210 275 296 48 83 174 266 299 290 219 181 179 177 173 197
258 166 158 247 266 266 273 271 281 248 237 252 228 216 189 204 227 232 225 240 239 166 131 113 112 130 294 296 279 233 268 256 99 81 309 293 311 319 311 253 196 188 196 210
225 167 182 254 277 304 298 274 271 289 305 316 307 229 195 186 215 213 200 213 223 213 173 154 169 216 249 288 350 355 97 118 94 57 318 316 314 265 287 293 258 224 224 215
203 184 185 224 230 218 256 277 272 261 282 272 284 311 283 196 206 211 208 202 189 201 194 180 192 223 248 236 323 332 0 123 122 92 311 300 299 281 230 251 325 318 281 277